Weather History for Atlantic City, NJ

Change the Weather History Date:

Saturday, February 15, 2014

  Actual Average Record
Temperature  
Mean Temperature 35 °F 35 °F  
Max Temperature 45 °F 44 °F 65 °F (1989)
Min Temperature 25 °F 26 °F 4 °F (1916)
Degree Days  
Heating Degree Days 30 30  
Month to date heating degree days 503 462  
Since 1 July heating degree days 3451 3223  
Cooling Degree Days 0 0  
Month to date cooling degree days 0 0  
Year to date cooling degree days 0 0  
Moisture  
Dew Point 31 °F    
Average Humidity 82    
Maximum Humidity 100    
Minimum Humidity 64    
Precipitation  
Precipitation 0.11 in 0.09 in 2.05 in (1953)
Month to date precipitation 4.60 1.45  
Year to date precipitation 7.85 4.67  
Snow  
Snow 0.40 in 0.30 in 1.50 in (2003)
Month to date snowfall 4.9 3.9  
Since 1 July snowfall 27.0 12.3  
Snow Depth 0.00 in    
Sea Level Pressure  
Sea Level Pressure 29.63 in    
Wind  
Wind Speed 14 mph (North)    
Max Wind Speed 26 mph    
Max Gust Speed 36 mph    
Visibility 6 miles    
Events Fog , Rain , Snow    
T = Trace of Precipitation, MM = Missing Value Source: NWS Daily Summary

Daily Weather History Graph

Daily Weather History Graph

Search for Another Location

Airport:

Trip Planner

Search our weather history database for the weather conditions in past years. The results will help you decide how hot, cold, wet, or windy it might be!

Date:

Astronomy

Feb. 15, 2014 Rise Set
Actual Time 6:50 AM EST 5:34 PM EST
Civil Twilight 6:22 AM EST 6:02 PM EST
Nautical Twilight 5:51 AM EST 6:34 PM EST
Astronomical Twilight 5:20 AM EST 7:05 PM EST
Moon 6:32 PM EST (2/15) 6:48 AM EST (2/15)
Length of Visible Light 11h 39m
Length of Day
10h 44m
Full, 100% of the Moon is Illuminated
Feb 15
Full
Feb 22
Last Quarter
Mar 1
New
Mar 8
First Quarter
Mar 16
Full

Hourly Weather History & Observations

Time (EST) Temp. Windchill Dew Point Humidity Pressure Visibility Wind Dir Wind Speed Gust Speed Precip Events Conditions
12:54 AM 28.0 °F - 24.1 °F 85% 29.78 in 9.0 mi Calm Calm - N/A   Clear
1:54 AM 27.0 °F 21.6 °F 24.1 °F 89% 29.78 in 8.0 mi ENE 4.6 mph - N/A   Clear
2:54 AM 33.1 °F 26.1 °F 28.0 °F 82% 29.75 in 10.0 mi ENE 8.1 mph - N/A   Partly Cloudy
3:54 AM 34.0 °F 27.2 °F 27.0 °F 75% 29.75 in 10.0 mi ENE 8.1 mph - N/A   Clear
4:54 AM 36.0 °F 27.5 °F 27.0 °F 70% 29.72 in 10.0 mi ENE 12.7 mph - N/A   Scattered Clouds
5:54 AM 37.0 °F 29.3 °F 27.0 °F 67% 29.69 in 10.0 mi ENE 11.5 mph - N/A   Overcast
6:54 AM 37.0 °F 28.5 °F 28.9 °F 73% 29.67 in 10.0 mi ENE 13.8 mph - N/A   Overcast
7:54 AM 37.9 °F 29.2 °F 30.9 °F 76% 29.68 in 10.0 mi ENE 15.0 mph - N/A   Overcast
8:54 AM 39.0 °F 32.3 °F 35.1 °F 86% 29.66 in 5.0 mi ENE 10.4 mph - 0.00 in Rain Light Rain
9:54 AM 41.0 °F 33.9 °F 39.0 °F 93% 29.61 in 6.0 mi ENE 12.7 mph - 0.01 in   Mostly Cloudy
10:54 AM 42.1 °F 35.2 °F 39.0 °F 89% 29.61 in 4.0 mi ENE 12.7 mph - 0.00 in Rain Light Rain
11:07 AM 42.1 °F 36.1 °F 39.9 °F 92% 29.60 in 4.0 mi ENE 10.4 mph - 0.01 in Rain Light Rain
11:54 AM 43.0 °F 37.2 °F 41.0 °F 93% 29.56 in 7.0 mi ENE 10.4 mph - 0.02 in   Overcast
12:54 PM 44.1 °F 38.6 °F 41.0 °F 89% 29.50 in 9.0 mi NE 10.4 mph - N/A   Overcast
1:08 PM 44.1 °F 37.1 °F 41.0 °F 89% 29.48 in 9.0 mi NE 15.0 mph - N/A   Overcast
1:54 PM 42.1 °F 35.7 °F 39.0 °F 89% 29.49 in 7.0 mi North 11.5 mph - N/A   Overcast
2:11 PM 39.9 °F 32.9 °F 37.0 °F 89% 29.51 in 7.0 mi North 11.5 mph 21.9 mph N/A   Overcast
2:54 PM 37.0 °F 26.2 °F 34.0 °F 89% 29.50 in 5.0 mi North 21.9 mph 27.6 mph 0.00 in Rain Light Rain
3:13 PM 36.0 °F 26.0 °F 33.1 °F 89% 29.51 in 4.0 mi North 17.3 mph 25.3 mph 0.00 in Snow Light Snow
3:29 PM 34.0 °F 23.0 °F 32.0 °F 92% 29.52 in 1.8 mi NNW 18.4 mph 26.5 mph 0.01 in Snow Light Snow
3:40 PM 33.1 °F 22.6 °F 32.0 °F 96% 29.53 in 1.2 mi NNW 16.1 mph - 0.01 in Snow Light Snow
3:54 PM 33.1 °F 23.0 °F 30.9 °F 92% 29.53 in 0.8 mi NNW 15.0 mph 23.0 mph 0.03 in Snow Light Snow
4:54 PM 32.0 °F 20.5 °F 30.9 °F 96% 29.57 in 0.5 mi NNW 18.4 mph 27.6 mph 0.02 in Fog , Snow Snow
5:42 PM 30.9 °F 17.5 °F 30.0 °F 96% 29.59 in 1.0 mi NNW 24.2 mph 32.2 mph 0.02 in Snow Light Snow
5:54 PM 30.9 °F 18.4 °F 30.0 °F 96% 29.60 in 1.0 mi NNW 20.7 mph 31.1 mph 0.02 in Snow Light Snow
6:12 PM 32.0 °F 19.8 °F 30.0 °F 92% 29.61 in 1.5 mi NNW 20.7 mph 27.6 mph 0.00 in Snow Light Snow
6:18 PM 32.0 °F 19.2 °F 30.9 °F 96% 29.62 in 2.0 mi NNW 23.0 mph 33.4 mph 0.00 in Snow Light Snow
6:45 PM 32.0 °F 19.5 °F 30.0 °F 92% 29.64 in 3.0 mi NNW 21.9 mph 32.2 mph 0.01 in Snow Light Snow
6:54 PM 32.0 °F 19.8 °F 30.9 °F 96% 29.64 in 4.0 mi NW 20.7 mph 28.8 mph 0.01 in Snow Light Snow
7:54 PM 32.0 °F 19.5 °F 30.0 °F 92% 29.67 in 7.0 mi NW 21.9 mph 29.9 mph 0.00 in   Overcast
8:16 PM 32.0 °F 18.9 °F 28.9 °F 88% 29.68 in 10.0 mi NW 24.2 mph 31.1 mph N/A   Overcast
8:54 PM 32.0 °F 19.8 °F 27.0 °F 82% 29.70 in 10.0 mi NW 20.7 mph 32.2 mph N/A   Overcast
9:54 PM 30.0 °F 17.5 °F 21.9 °F 72% 29.75 in 10.0 mi NW 19.6 mph 26.5 mph N/A   Clear
10:54 PM 28.9 °F 17.3 °F 19.9 °F 69% 29.79 in 10.0 mi NW 16.1 mph 25.3 mph N/A   Partly Cloudy
11:54 PM 28.0 °F 14.9 °F 19.0 °F 69% 29.81 in 10.0 mi NW 19.6 mph 25.3 mph N/A   Clear